Location: Buckeye Ditch
(40.9104°N, 122.9517°W)
Time: 17:41:39
(UTC+00:00)

SR - Pass Details

Date: 21 May 2025
Orbit: 570 x 855 km, 66.7° (Epoch: 13 June)

Event Time Altitude Azimuth Distance (km) Brightness Sun altitude
Rises 08:46:58 0° 231° (SW) 3,380 - -28.2°
Reaches altitude 10° 08:49:34 10° 239° (WSW) 2,467 - -28.1°
Exits shadow 08:53:44 35° 280° (W) 1,345 ? -27.9°
Maximum altitude 08:54:56 39° 308° (NW) 1,258 ? -27.9°
Drops below altitude 10° 09:00:19 10° 16° (NNE) 2,476 ? -27.6°
Sets 09:02:57 0° 25° (NNE) 3,394 ? -27.5°
